Regional Weather Roundup
Issued by NWS Cleveland, OH

Home | Current Version | Previous Version | Graphics & Text | Print | Product List | Glossary On
Versions: 1 2 3 4 5 6 7 8 9 10 11 12 13 14 15 16 17 18 19 20 21 22 23 24 25 26 27 28 29 30 31 32 33 34 35 36 37 38 39 40 41 42 43 44 45 46 47 48 49 50
000
ASUS41 KCLE 280800
RWRCLE
OHIO REGIONAL WEATHER ROUNDUP
NATIONAL WEATHER SERVICE WILMINGTON, OH
300 AM EST WED JAN 28 2015

NOTE: "FAIR" INDICATES FEW OR NO CLOUDS BELOW 12,000 FEET WITH NO
SIGNIFICANT WEATHER AND/OR OBSTRUCTIONS TO VISIBILITY.

OHZ001>008-015>018-024>027-034-035-043-044-280900-
   NORTHWEST OHIO

CITY           SKY/WX    TMP DP  RH WIND       PRES   REMARKS
DEFIANCE       PTCLDY     5   0  79 CALM      30.28R
FINDLAY        PTCLDY     5   0  79 CALM      30.24S
TOLEDO EXPRESS CLEAR      9   5  84 CALM      30.26R
TOLEDO EXEC    PTCLDY    14   7  73 CALM      30.27R
LIMA           PTCLDY     4  -2  76 CALM      30.24R HAZE
$$

OHZ009>014-019>023-028>033-038-089-280900-
   NORTHEAST OHIO

CITY           SKY/WX    TMP DP  RH WIND       PRES   REMARKS
CLE-HOPKINS    PTCLDY    12   9  87 W5        30.26R WCI   4
CLE-LAKEFRONT  CLEAR     10   7  87 W3        30.24R
CUY CO. ARPT   NOT AVBL
LORAIN-ELYRIA  PTCLDY     8   6  92 W3        30.24R
ASHTABULA      PTCLDY    -2  -7  79 SW3       30.19R
AKRON-CANTON   PTCLDY    12   8  84 W7        30.19R FOG     WCI   1
WOOSTER        NOT AVBL
MANSFIELD      PTCLDY     9   6  88 NW6       30.20R WCI  -1
YOUNGSTOWN     PTCLDY     7   3  84 W3        30.17R
$$

OHZ042-051>053-060>062-070>072-077>081-280900-
  SOUTHWEST OHIO

CITY           SKY/WX    TMP DP  RH WIND       PRES   REMARKS
CINC-COVINGTON CLEAR     15  11  83 CALM      30.27R
CINC-LUNKEN    CLEAR     14  11  87 CALM      30.32R FOG
HAMILTON       CLEAR     12   9  87 W3        30.30R FOG
DAYTON         NOT AVBL
WRIGHT-PAT AFB CLEAR      7   3  85 CALM      30.27R
DAYTON GENERAL CLEAR     11   8  88 CALM      30.26R FOG
WILMINGTON     CLEAR     10   5  80 CALM      30.24R HAZE
$$

OHZ036-037-039>041-045>050-054>059-063>069-073>076-082>088-280900-
  CENTRAL AND SOUTHEAST OHIO

CITY           SKY/WX    TMP DP  RH WIND       PRES   REMARKS
COLUMBUS       PTCLDY     9   6  88 CALM      30.26R FOG
OSU AIRPORT    PTCLDY     9   6  88 W3        30.25R
BOLTON FIELD   NOT AVBL
RICKENBACK AFB NOT AVBL
NEWARK         CLEAR      3  -1  83 CALM      30.25R
MARION         FOG        1  -3  83 CALM      30.24R VSB 1/4
LANCASTER      PTCLDY     3   0  87 CALM      30.25R FOG
ZANESVILLE     CLOUDY    15   9  76 NW3       30.24R
NEW PHILLY     PTCLDY    15  10  80 NW6       30.23R WCI   6
$$



USA.gov is the U.S. government's official web portal to all federal, state and local government web resources and services.